#�ϑ�����,���ϕ���,���ϕ���,�ő啗��,�ő啗����������,�ő�u�ԕ���,�ő�u�ԕ�����������
#(�N����),(m/s)   ,(16����),(m/s)   ,(16����)        ,(m/s)       ,(16����)            
2012/11/12 4:32,0,4,0,4,0,3
2012/11/12 4:33,0,5,0,4,0,3
2012/11/12 4:34,0,5,0,4,0,5
2012/11/12 4:35,0,6,0,4,0.1,12
2012/11/12 4:36,0,9,0,4,0.1,12
2012/11/12 4:37,0.1,11,0.1,10,0.9,13
2012/11/12 4:38,0.1,11,0.1,10,0.6,12
2012/11/12 4:39,0.1,12,0.1,10,0.1,12
2012/11/12 4:40,0.1,12,0.1,10,0,13
2012/11/12 4:41,0.1,12,0.1,10,0,12
2012/11/12 4:42,0.1,13,0.1,10,0,3
2012/11/12 4:43,0.1,13,0.1,10,0,2
2012/11/12 4:44,0.1,14,0.1,10,0,2
2012/11/12 4:45,0.1,14,0.1,10,0.1,2
2012/11/12 4:46,0.1,15,0.1,10,0,3
2012/11/12 4:47,0,15,0.1,11,0,13
2012/11/12 4:48,0,16,0,11,0.1,6
2012/11/12 4:49,0,1,0,12,0,5
2012/11/12 4:50,0,2,0,12,0.5,4
2012/11/12 4:51,0,3,0,12,0.5,4
2012/11/12 4:52,0,3,0,13,0.3,4
2012/11/12 4:53,0,3,0,13,0,16
2012/11/12 4:54,0,3,0,14,0,5
2012/11/12 4:55,0,4,0,14,0,4
2012/11/12 4:56,0,4,0,15,0.5,4
2012/11/12 4:57,0.1,4,0.1,4,0.8,4
2012/11/12 4:58,0.1,4,0.1,4,0.6,5
2012/11/12 4:59,0.1,4,0.1,4,0.1,5
2012/11/12 5:00,0.1,3,0.1,4,0,16
2012/11/12 5:01,0.1,3,0.1,4,0.4,2
2012/11/12 5:02,0.1,3,0.1,4,0.5,2
2012/11/12 5:03,0.1,3,0.1,4,0.1,2
2012/11/12 5:04,0.1,2,0.1,4,0.1,16
2012/11/12 5:05,0.1,2,0.1,4,0,16
2012/11/12 5:06,0.1,2,0.1,4,0.1,2
2012/11/12 5:07,0.1,1,0.1,4,0.1,3
2012/11/12 5:08,0,1,0.1,4,0.1,3
2012/11/12 5:09,0,1,0,4,0.3,3
2012/11/12 5:10,0.1,1,0.1,3,1,16
2012/11/12 5:11,0.2,1,0.2,1,1.3,16
2012/11/12 5:12,0.2,1,0.2,1,0.6,16
2012/11/12 5:13,0.2,1,0.2,1,1,3
2012/11/12 5:14,0.3,2,0.3,1,1,3
2012/11/12 5:15,0.4,2,0.4,2,1,2
2012/11/12 5:16,0.4,2,0.4,2,1,2
2012/11/12 5:17,0.5,2,0.5,2,0.9,3
2012/11/12 5:18,0.6,2,0.6,2,0.9,3
2012/11/12 5:19,0.6,2,0.6,2,0.6,3
2012/11/12 5:20,0.6,2,0.6,2,0.6,4
2012/11/12 5:21,0.6,3,0.6,2,0.6,4
2012/11/12 5:22,0.6,3,0.6,2,0.6,5
2012/11/12 5:23,0.5,3,0.6,2,0.6,4
2012/11/12 5:24,0.5,3,0.5,2,0.6,16
2012/11/12 5:25,0.4,2,0.5,2,0.9,16
2012/11/12 5:26,0.4,2,0.4,2,0.9,16
2012/11/12 5:27,0.4,2,0.4,2,0.8,16
2012/11/12 5:28,0.4,2,0.4,2,0.8,16
2012/11/12 5:29,0.4,1,0.4,2,0.6,16
2012/11/12 5:30,0.4,1,0.4,2,0.6,1
2012/11/12 5:31,0.4,1,0.4,3,0.6,1
2012/11/12 5:32,0.4,16,0.4,3,0.8,15
2012/11/12 5:33,0.5,16,0.5,3,1,15
2012/11/12 5:34,0.5,16,0.5,3,1,15
2012/11/12 5:35,0.4,16,0.5,16,0.3,16
2012/11/12 5:36,0.4,16,0.4,16,0.1,11
2012/11/12 5:37,0.3,15,0.4,16,0,11
2012/11/12 5:38,0.3,15,0.3,16,0.1,15
2012/11/12 5:39,0.3,15,0.3,16,0.5,16
2012/11/12 5:40,0.3,15,0.3,16,0.5,16
2012/11/12 5:41,0.3,14,0.3,16,0.5,16
2012/11/12 5:42,0.2,15,0.3,16,0.5,1
2012/11/12 5:43,0.1,15,0.2,16,0,2
2012/11/12 5:44,0.1,15,0.1,16,0.5,1
2012/11/12 17:24,1.6,16,1.6,16,1.6,15
2012/11/12 17:25,1.4,15,1.6,16,2,16
2012/11/12 17:26,1.3,15,1.4,16,1.9,15
2012/11/12 17:27,1.5,15,1.5,16,2.4,15
2012/11/12 17:28,1.4,15,1.5,16,2.1,15
2012/11/12 17:29,1.5,15,1.5,16,3,15
2012/11/12 17:30,1.5,15,1.5,16,2.4,15
2012/11/12 17:31,1.5,15,1.5,16,2.2,15
2012/11/12 17:32,1.4,15,1.5,16,1.8,16
2012/11/12 17:33,1.5,15,1.5,16,2.7,15
2012/11/12 17:34,1.5,15,1.5,16,3,15
2012/11/12 17:35,1.5,15,1.5,15,2.6,16
2012/11/12 17:36,1.5,15,1.5,15,2.7,16
2012/11/12 17:37,1.5,15,1.6,15,2.7,15
2012/11/12 17:38,1.6,15,1.6,15,2.9,14
2012/11/12 17:39,1.7,15,1.7,15,3,15
2012/11/12 17:40,1.6,15,1.7,15,2.5,15
2012/11/12 17:41,1.6,15,1.6,15,1.3,13
2012/11/12 17:42,1.5,15,1.6,15,0.8,1
2012/11/12 17:43,1.3,14,1.5,15,0.6,8
2012/11/12 17:44,1.2,14,1.3,15,0.8,15
2012/11/12 17:45,1,14,1.2,15,0.8,14
2012/11/12 17:46,1,14,1,15,2,15
2012/11/12 17:47,1,14,1,15,2.9,15
2012/11/12 17:48,1,14,1,15,2.4,16
2012/11/12 17:49,0.9,14,1,15,2,16
2012/11/12 17:50,0.9,14,0.9,15,2.1,15
2012/11/12 17:51,0.9,14,0.9,15,1.9,13
2012/11/12 17:52,1,14,1,15,1,13
2012/11/12 17:53,1,14,1,14,0.6,11
2012/11/12 17:54,1,14,1,14,0.9,14
2012/11/12 17:55,1,14,1,14,0.9,13
2012/11/12 17:56,1,14,1,14,0.9,15
2012/11/12 17:57,0.8,14,0.9,14,0.9,15
2012/11/12 17:58,0.7,14,0.8,14,0.6,15
2012/11/12 17:59,0.6,15,0.7,14,1,16
2012/11/12 18:00,0.6,15,0.6,14,1.3,16
2012/11/12 18:01,0.6,15,0.6,14,1.6,15
2012/11/12 18:02,0.7,15,0.7,14,1.9,15
2012/11/12 18:03,0.7,16,0.7,14,1.4,15
2012/11/12 18:04,0.8,16,0.8,14,1.3,15
2012/11/12 18:05,0.8,15,0.8,14,1.3,11
2012/11/12 18:06,0.9,15,0.9,14,1.4,11
2012/11/12 18:07,0.9,15,0.9,15,1.4,15
2012/11/12 18:08,1,15,1,15,2,16
2012/11/12 18:09,1.1,15,1.1,15,2.5,16
2012/11/12 18:10,1.1,14,1.1,15,1.9,15
2012/11/12 18:11,1.1,14,1.1,15,1.5,15
2012/11/12 18:12,1.1,14,1.1,15,2,15
2012/11/12 18:13,1.1,14,1.1,15,2.1,15
2012/11/12 18:14,1.2,14,1.2,14,1.5,16
2012/11/12 18:15,1.2,15,1.2,14,1.6,14
2012/11/12 18:16,1.2,15,1.2,14,1.9,15
2012/11/12 18:17,1.3,15,1.3,15,2.6,15
2012/11/12 18:18,1.3,15,1.3,15,1.5,16
2012/11/12 18:19,1.3,15,1.3,15,2.4,15
2012/11/12 18:20,1.3,15,1.3,15,1.5,16
2012/11/12 18:21,1.2,15,1.3,15,1.5,14
2012/11/12 18:22,1.3,15,1.3,15,2.7,16
2012/11/12 18:23,1.3,15,1.3,15,2.1,15
2012/11/12 18:24,1.3,15,1.3,15,1.9,16
2012/11/12 18:25,1.4,15,1.4,15,2,14
2012/11/12 18:26,1.3,15,1.4,15,1.5,15
2012/11/12 18:27,1.2,15,1.3,15,1.4,14
2012/11/12 18:28,1.3,15,1.3,15,1.5,15
2012/11/12 18:29,1.2,15,1.3,15,1.1,15
2012/11/12 18:30,1.2,15,1.2,15,1.6,15
2012/11/12 18:31,1.2,15,1.2,15,1.4,16
2012/11/12 18:32,1.1,15,1.2,15,1.1,16
2012/11/12 18:33,1,15,1.1,15,1.6,16
2012/11/12 18:34,1,15,1,15,2.1,15
